Location: Seven Kings
(51.5667°N, 0.1000°E)
Time: 03:31:17
(UTC+00:00)

BREEZE-M TANK - Pass Details

Date: 29 October 2020
Orbit: 546 x 24740 km, 45.2° (Epoch: 21 November)

Event Time Altitude Azimuth Distance (km) Brightness Sun altitude
Rises 16:59:50 0° 259° (W) 9,598 11.3 -4.2°
Reaches altitude 10° 17:09:07 10° 257° (WSW) 5,952 9.5 -5.6°
Maximum altitude 17:20:34 50° 186° (S) 1,272 4.3 -7.3°
Drops below altitude 10° 17:24:24 10° 109° (ESE) 2,056 4.7 -7.9°
Enters shadow 17:24:54 - 107° (ESE) 2,276 4.9 -7.9°
